Location: Gleizolles
(44.4833°N, 6.7667°E)
Time: 13:06:19
(UTC+00:00)

Vanguard 1 - Pass Details

Date: 02 July 2024
Orbit: 650 x 3826 km, 34.3° (Epoch: 15 July)

Event Time Altitude Azimuth Distance (km) Brightness Sun altitude
Rises 06:33:17 0° 215° (SW) 7,711 14.3 25.7°
Reaches altitude 10° 06:40:00 10° 206° (SSW) 6,344 14.0 26.9°
Maximum altitude 06:54:28 29° 156° (SSE) 3,815 13.5 29.4°
Drops below altitude 10° 07:03:56 10° 102° (ESE) 4,113 14.7 31.1°
Sets 07:07:07 0° 91° (E) 4,715 14.7 31.7°
